Погода Силуте

Поиск расширенной информации на нашем сайте:

Полезная информация:

Новости сайта



02.01.2020
Опубликован Долгосрочный прогноз погоды по городам России и ближнего зарубежья на январь 2020 года.
Карты: Прогноз на январь и февраль 2020 года, Сравнение прогнозируемой аномалии приземной температуры воздуха на январь 2020 года по разным моделям.




Погода Силуте - сегодня

Время (UTC), дата Ветер
(°,м/с) 
Видим.   Явления Облачность Т
(°С)
Тd
(°С)
f(%) Тe
(°С)
Pmin
(гПа)
dP
(гПа)
Po
(мм)
O2
(г/м3)
Тmin Tmax R s Состояние
почвы
03 24.02.21 210 (ЮЗ) 2-3{04}  1800 м  дымка  10/10 200 м 
+2.9 +2.2 95 +2  1029.1  -0.4  771  307           
06 24.02.21 200 (Ю) 1-2{04}  2900 м  дымка  10/10 200 м 
+3.4 +2.6 94 +4  1029.7  0.6  772  307  +2.2         
09 24.02.21 200 (Ю) 1-3{04}  7000 м  дымка  9/9 1000 м 
+5.2 +3.4 88 +6  1029  -0.7  771  304           
12 24.02.21 210 (ЮЗ) 3-5{05}  10 км    1/1 1500 м 
+9.1 +5.5 78 +9  1028.9  0.1  771  300           
15 24.02.21 240 (ЮЗ) 4-6{06}  11000 м    5/0 
+6.5 +4 84 +5  1027.4  -1.5  770  303           
21 24.02.21 240 (ЮЗ) 3-4{06}  7000 м  дымка  9/9 1500 м 
+4.5 +3.5 93 +3  1026  -0.5  769  304           
00 25.02.21 240 (ЮЗ) 4-5{07}  10 км    9/9 1500 м 
+4.8 +3 88 +3  1025.5  -0.5  769  304           
03 25.02.21 240 (ЮЗ) 3-5{06}  12000 м  в посл. час дождь  9/0 
+5 +3.4 89 +4  1024.9  -0.6  768  303           
12 25.02.21 230 (ЮЗ) 5-8{08}  19000 м    ясно <0100 м 
+13.5 +7.2 66 +13  1023.9  -1.1  767  294           
15 25.02.21 230 (ЮЗ) 3-5{08}  19000 м    ясно <0100 м 
+11.3 +5.7 68 +11  1021.7  -2.2  766  295           
18 25.02.21 250 (З) 3-4{05}  13000 м    ясно <0100 м 
+5.8 +3.2 83 +5  1021  -0.7  765  301    +14.5       
21 25.02.21 250 (З) 6-10{10}  8000 м  дымка  ясно <0100 м 
+5.3 +3.5 88 +3  1020  -1  765  302           
00 26.02.21 260 (З) 6-8{10}  5000 м  дымка  4/0 
+4.6 +3.3 91 +2  1019.1  -0.9  764  302           
03 26.02.21 270 (З) 6-9{10}  7000 м  дымка  9/0 
+4.2 +3.1 93 +2  1018.8  -0.3  764  303           
06 26.02.21 270 (З) 7-10{10}  7000 м  дымка  10/10 200 м 
+4 +3.1 94 +1  1018.8  764  303  +2.8         
12 26.02.21 270 (З) 9-14{15}  19000 м    10/10 600 м 
+4.6 +2.3 85 +1  1018.5  -0.7  763  302           
15 26.02.21 260 (З) 7-10{14}  19000 м    10/10 300 м 
+3.9 +1.8 86 +1  1018  -0.5  763  303           
18 26.02.21 270 (З) 6-8{12}  16000 м    6/6 200 м 
+3 +1.7 91 1018.2  0.2  763  304    +4.9       
21 26.02.21 280 (З) 5-8{11}  19000 м    8/0 2000 м 
+3.4 +1.7 89 +1  1018.4  0.2  763  304           
00 27.02.21 300 (СЗ) 3-5{08}  20000 м    8/8 1500 м 
+2.6 +0.8 88 +1  1019.6  1.2  764  305           
03 27.02.21 310 (СЗ) 4-6{06}  20000 м    ясно 
+1.8 -0.1 87 1021.5  1.9  766  307           
06 27.02.21 320 (СЗ) 4-5{06}  20000 м    ясно 
+1.5 -0.4 87 -1  1023.9  2.4  767  308  +0.8         
09 27.02.21 330 (СЗ) 7-10{10}  20000 м    ясно 
+5.4 +1 73 +3  1026.2  2.3  769  304           
12 27.02.21 310 (СЗ) 9-12{12}  20000 м    ясно 
+5.6 +1.2 73 +2  1027.6  1.4  770  304           
15 27.02.21 320 (СЗ) 8-11{13}  20000 м    ясно 
+3.7 +0.5 80 1029.3  1.7  772  307           
Время (UTC), дата Ветер
(°,м/с) 
Видим.   Явления Облачность Т
(°С)
Тd
(°С)
f(%) Тe
(°С)
Pmin
(гПа)
dP
(гПа)
Po
(мм)
O2
(г/м3)
Тmin Tmax R s Состояние
почвы

Для получения пояснительной информации подведите курсор к названию столбца.

ПОГОДА Силуте - архив

Всё, что Вы хотите узнать о погоде Силуте - удобно и подробно!

Выберите нужную дату (начиная с 1 января 2019* года) и нажмите кнопку "Найти".
Будут отображены архивные сводки погоды по пункту Силуте, начиная с указанной даты.


Отображать данные в формате CSV (для использования в таблицах Excel)


Внимание! Наш архив погоды предназначен исключительно для личного некоммерческого использования в познавательных целях. Если Вам необходимы официальные справки о состоянии погоды (для производственных, юридических, коммерческих и т.п. целей), обращайтесь в органы Росгидромета.

*Примечание: данная дата относится к архиву по метеостанциям СССР (Россия, СНГ, Балтия).
Архив по метеостанциям Зарубежной Европы и Азии (кроме Китая) хранится 10 дней, по другим регионам земного шара (Китай, Африка, Америка, Австралия, Океания) - 1 день.

Силуте - район местоположения метеостанции


Название, широта, долгота, высота метеостанции:
Силуте 55.3°ш. 21.5°д. 5 м над ур. моря [Литва]

Дополнительная информация

В oтличие oт бoльшинства пoгoдных сайтoв мы публикуем пoдрoбную метеoинфoрмацию в детальнoм прoфессиoнальнoм фoрмате.

Характеристики температуры и влажнoсти вoздуха измеряются на высoте 2 м в тени вдали oт зданий и деревьев.
Скoрoсть ветра измеряется на высoте 10 м (на урoвне рoста челoвека скoрoсть ветра ниже в 1.5-2 раза). Если метеoстанция нахoдится в гoрoде или в лесу, тo скoрoсть ветра занижена на 2-4 м/с пo сравнению с oткрытым местoм. Скoрoсть ветра над акватoриями крупных рек и oзёр, а также на вершинах хoлмoв на 2-5 м/с выше, чем в oбычных услoвиях.
Атмoсфернoе давление в разных тoчках местнoсти мoжет значительнo oтличаться oт давления на метеoстанции, в зависимoсти oт услoвий рельефа (при пoдъёме на 10 м давление пoнижается примернo на 1 мм рт.ст.).